Flag for Faroe Islands Weather past 2 weeks in Tórshavn, Faroe Islands, Faroe Islands

Now
46 °F

Partly sunny.


Feels Like: 41 °F
Forecast: 38 / 51 °F
Wind: 10 mph from South

Location: Soervaag / Vagar

Current Time: Apr 19, 2015 at 2:47:06 PM

Latest Report: Apr 19, 2015 at 2:20 PM


Visibility: N/A

Pressure: 30.51 "Hg

Humidity: 71%

Dew point: 37 °F

Location of TórshavnLocation

Historic Weather in Tórshavn — Graph

°F

Tórshavn temperature yesterday

Maximum temperature yesterday: 48 °F (at 11:20 AM)
Minimum temperature yesterday: 41 °F (at 10:50 PM)
Average temperature yesterday: 45 °F

Past Weeks' High & Low Weather Summary

 TemperatureHumidityPressure
High48 °F (Apr 17, 12:20 PM)100% (Apr 4, 3:20 PM)30.54 "Hg (Apr 4, 3:20 PM)
Low28 °F (Apr 13, 12:20 AM)53% (Apr 7, 2:50 PM)29.21 "Hg (Apr 11, 6:50 AM)
Average43 °F82%29.92 "Hg
* Reported Apr 4 1:20 PM — Apr 19 1:20 PM, Tórshavn, Weather by CustomWeather, © 2015

Note: Actual official high and low records may vary slightly from our data, if they occured in-between our weather recording intervals... More about our weather records

Advertising

Tórshavn weather history for previous 24 hours

 ConditionsComfort  
Time TempWeatherWind HumidityBarometerVisibility
1:20 PM
Sun, Apr 19
46 °FPartly sunny.9 mph71%30.54 "HgN/A
12:50 PM46 °FScattered clouds.8 mph71%30.54 "HgN/A
12:20 PM48 °FPartly sunny.7 mph71%30.51 "HgN/A
11:50 AM46 °FPartly sunny.3 mph71%30.51 "HgN/A
11:20 AM46 °FPartly sunny.5 mph71%30.51 "HgN/A
10:50 AM46 °FPartly sunny.2 mph71%30.51 "HgN/A
10:20 AM46 °FPartly sunny.2 mph71%30.51 "HgN/A
9:50 AM46 °FPartly sunny.1 mph71%30.51 "HgN/A
9:20 AM45 °FPartly sunny.3 mph76%30.51 "HgN/A
8:50 AM45 °FPartly sunny.2 mph81%30.51 "HgN/A
8:20 AM45 °FPartly sunny.2 mph81%30.51 "HgN/A
7:50 AM43 °FPartly sunny.2 mph87%30.51 "HgN/A
7:20 AM43 °FPartly sunny.1 mph93%30.51 "HgN/A
6:50 AM41 °FOvercast.1 mph93%30.51 "HgN/A
6:20 AM41 °FOvercast.2 mph93%30.51 "HgN/A
5:50 AM41 °FOvercast.1 mph93%30.51 "HgN/A
5:20 AM41 °FOvercast.No wind93%30.51 "HgN/A
4:20 AM41 °FLow clouds.1 mph93%30.51 "HgN/A
3:50 AM41 °FOvercast.1 mph93%30.51 "HgN/A
3:20 AM41 °FPassing clouds.5 mph93%30.54 "HgN/A
2:50 AM41 °FPassing clouds.3 mph87%30.54 "HgN/A
2:20 AM41 °FPassing clouds.2 mph93%30.54 "HgN/A
1:50 AM39 °FChilly.2 mph93%30.54 "HgN/A
1:20 AM39 °FPassing clouds.No wind93%30.54 "HgN/A
12:50 AM39 °FChilly.No wind93%30.54 "HgN/A
12:20 AM39 °FChilly.2 mph93%30.54 "HgN/A
11:50 PM
Sat, Apr 18
41 °FPassing clouds.1 mph87%30.54 "HgN/A
11:20 PM41 °FPassing clouds.1 mph93%30.54 "HgN/A
10:50 PM41 °FQuite cool.1 mph87%30.54 "HgN/A
10:20 PM43 °FPassing clouds.1 mph87%30.54 "HgN/A
9:50 PM43 °FScattered clouds.1 mph87%30.54 "HgN/A
9:20 PM45 °FPartly sunny.1 mph81%30.54 "HgN/A
8:50 PM45 °FScattered clouds.2 mph81%30.54 "HgN/A
8:20 PM45 °FQuite cool.2 mph81%30.54 "HgN/A
7:50 PM45 °FQuite cool.5 mph81%30.54 "HgN/A
7:20 PM45 °FScattered clouds.6 mph81%30.54 "HgN/A
6:50 PM46 °FPassing clouds.7 mph76%30.54 "HgN/A
6:20 PM46 °FCool.7 mph76%30.54 "HgN/A
5:50 PM46 °FCool.7 mph76%30.51 "HgN/A
5:20 PM46 °FCool.8 mph76%30.54 "HgN/A
4:50 PM46 °FCool.8 mph71%30.51 "HgN/A
4:20 PM46 °FCool.9 mph76%30.51 "HgN/A
3:50 PM48 °FCool.8 mph71%30.51 "HgN/A
3:20 PM48 °FPassing clouds.10 mph71%30.51 "HgN/A
2:50 PM48 °FPartly sunny.9 mph71%30.51 "HgN/A
2:20 PM48 °FPartly sunny.10 mph71%30.54 "HgN/A
Weather by CustomWeather, © 2015

See weather overviewHow to use our weather pages